SVFLIR Weather Reports


Display with metric or nautical units.
time (UTC)temp
F
wind
direction
speed
MPH
gust
MPH
rain 1hr
in
rain 24hr
in
rain mn
in
humidity
%
barometer
mb
20201127135828 30 345 1.0 6.0 0.00 0.00 0.00
20201127135326 29 358 3.0 6.0 0.00 0.00 0.00
20201127134822 29 329 1.0 4.0 0.00 0.00 0.00
20201127134324 29 344 3.0 5.0 0.00 0.00 0.00
20201127133822 27 329 0.0 3.0 0.00 0.00 0.00
20201127133320 28 319 2.0 2.0 0.00 0.00 0.00
20201127132817 28 338 0.0 3.0 0.00 0.00 0.00
20201127132316 28 9 0.0 3.0 0.00 0.00 0.00
20201127131815 28 5 2.0 3.0 0.00 0.00 0.00
20201127131314 29 317 2.0 7.0 0.00 0.00 0.00
20201127130813 29 306 6.0 7.0 0.00 0.00 0.00
20201127130312 31 285 5.0 6.0 0.00 0.00 0.00
20201127125812 31 258 0.0 1.0 0.00 0.00 0.00
20201127125310 30 262 1.0 1.0 0.00 0.00 0.00
20201127124813 26 296 1.0 4.0 0.00 0.00 0.00
20201127124311 27 350 4.0 4.0 0.00 0.00 0.00
20201127123808 29 309 2.0 2.0 0.00 0.00 0.00
20201127123308 31 322 2.0 4.0 0.00 0.00 0.00
20201127122805 31 270 0.0 0.0 0.00 0.00 0.00
20201127122306 26 270 0.0 0.0 0.00 0.00 0.00
20201127121809 29 270 0.0 0.0 0.00 0.00 0.00
20201127120802 32 270 0.0 0.0 0.00 0.00 0.00
20201127120300 33 270 0.0 0.0 0.00 0.00 0.00
20201127115800 34 270 0.0 0.0 0.00 0.00 0.00
20201127115259 35 270 0.0 0.0 0.00 0.00 0.00
20201127114758 28 270 0.0 0.0 0.00 0.00 0.00
20201127114256 31 270 0.0 3.0 0.00 0.00 0.00
20201127113756 27 260 3.0 3.0 0.00 0.00 0.00
20201127113255 28 92 2.0 1.0 0.00 0.00 0.00
20201127112754 30 75 0.0 3.0 0.00 0.00 0.00
20201127112253 30 113 1.0 3.0 0.00 0.00 0.00
20201127111752 31 19 2.0 4.0 0.00 0.00 0.00
20201127111250 33 60 2.0 3.0 0.00 0.00 0.00
20201127110750 35 95 0.0 3.0 0.00 0.00 0.00
20201127110249 36 63 3.0 4.0 0.00 0.00 0.00
20201127105747 36 77 3.0 7.0 0.00 0.00 0.00
20201127105250 34 36 4.0 7.0 0.00 0.00 0.00
20201127104745 35 323 5.0 0.0 0.00 0.00 0.00
20201127104245 33 279 0.0 2.0 0.00 0.00 0.00
20201127103744 34 275 0.0 3.0 0.00 0.00 0.00
20201127103243 35 291 2.0 0.0 0.00 0.00 0.00
20201127102741 29 282 0.0 2.0 0.00 0.00 0.00
20201127102240 31 282 0.0 7.0 0.00 0.00 0.00
20201127101740 31 271 2.0 10.0 0.00 0.00 0.00
20201127101239 32 288 3.0 9.0 0.00 0.00 0.00
20201127100738 35 305 8.0 7.0 0.00 0.00 0.00
20201127095737 32 112 6.0 5.0 0.00 0.00 0.00
20201127095235 31 97 5.0 3.0 0.00 0.00 0.00
20201127094734 33 68 2.0 3.0 0.00 0.00 0.00
20201127094233 30 345 0.0 4.0 0.00 0.00 0.00
20201127093731 31 357 3.0 3.0 0.00 0.00 0.00
20201127093232 30 324 2.0 2.0 0.00 0.00 0.00
20201127092730 32 302 0.0 1.0 0.00 0.00 0.00
20201127092232 35 80 1.0 1.0 0.00 0.00 0.00
20201127091730 38 120 0.0 0.0 0.00 0.00 0.00
20201127091227 40 105 0.0 0.0 0.00 0.00 0.00
20201127090726 41 105 0.0 2.0 0.00 0.00 0.00
20201127090225 42 105 0.0 1.0 0.00 0.00 0.00
20201127085734 43 139 0.0 2.0 0.00 0.00 0.00
20201127085223 43 143 1.0 3.0 0.00 0.00 0.00
20201127084721 44 177 0.0 4.0 0.00 0.00 0.00
20201127084221 44 136 3.0 4.0 0.00 0.00 0.00
20201127083725 44 144 2.0 5.0 0.00 0.00 0.00
20201127083219 46 140 5.0 7.0 0.00 0.00 0.00
20201127082720 46 157 6.0 7.0 0.00 0.00 0.00
20201127082217 46 175 6.0 7.0 0.00 0.00 0.00
20201127081717 45 150 7.0 7.0 0.00 0.00 0.00
20201127081217 45 140 6.0 7.0 0.00 0.00 0.00
20201127080715 36 158 5.0 7.0 0.00 0.00 0.00
20201127080218 30 139 5.0 3.0 0.00 0.00 0.00
20201127075712 31 217 3.0 2.0 0.00 0.00 0.00
20201127075215 31 202 0.0 2.0 0.00 0.00 0.00
20201127074716 34 216 0.0 0.0 0.00 0.00 0.00
20201127074209 34 272 0.0 0.0 0.00 0.00 0.00
20201127073708 33 272 0.0 4.0 0.00 0.00 0.00
20201127073207 36 272 0.0 5.0 0.00 0.00 0.00
20201127072707 38 319 3.0 6.0 0.00 0.00 0.00
20201127072205 40 101 3.0 6.0 0.00 0.00 0.00
20201127071708 41 135 6.0 7.0 0.00 0.00 0.00
20201127071208 41 150 5.0 7.0 0.00 0.00 0.00
20201127070702 42 140 6.0 8.0 0.00 0.00 0.00
20201127065700 39 136 5.0 6.0 0.00 0.00 0.00
20201127065203 39 135 5.0 3.0 0.00 0.00 0.00
20201127064658 39 154 3.0 2.0 0.00 0.00 0.00
20201127064157 41 150 1.0 2.0 0.00 0.00 0.00
20201127063659 42 136 0.0 3.0 0.00 0.00 0.00
20201127063155 43 130 3.0 3.0 0.00 0.00 0.00
20201127062654 44 188 1.0 3.0 0.00 0.00 0.00
20201127062153 45 174 2.0 3.0 0.00 0.00 0.00
20201127061653 46 184 2.0 6.0 0.00 0.00 0.00
20201127061151 44 205 0.0 5.0 0.00 0.00 0.00
20201127060652 45 199 4.0 4.0 0.00 0.00 0.00
20201127060159 41 181 3.0 5.0 0.00 0.00 0.00
20201127055649 38 216 3.0 4.0 0.00 0.00 0.00
20201127055149 41 195 2.0 0.0 0.00 0.00 0.00
20201127054648 39 232 0.0 0.0 0.00 0.00 0.00
20201127054148 31 232 0.0 2.0 0.00 0.00 0.00
20201127053645 33 226 2.0 3.0 0.00 0.00 0.00
20201127053144 36 202 0.0 0.0 0.00 0.00 0.00
20201127052646 39 257 0.0 0.0 0.00 0.00 0.00
20201127052141 33 257 0.0 0.0 0.00 0.00 0.00
20201127051640 33 257 0.0 0.0 0.00 0.00 0.00
20201127051141 32 257 0.0 0.0 0.00 0.00 0.00
20201127050639 36 257 0.0 0.0 0.00 0.00 0.00
20201127050138 38 257 0.0 0.0 0.00 0.00 0.00
20201127045637 39 257 0.0 0.0 0.00 0.00 0.00
20201127045136 36 257 0.0 0.0 0.00 0.00 0.00
20201127044635 38 257 0.0 0.0 0.00 0.00 0.00
20201127043633 35 257 0.0 0.0 0.00 0.00 0.00
20201127043134 37 257 0.0 0.0 0.00 0.00 0.00
20201127042633 40 257 0.0 3.0 0.00 0.00 0.00
20201127042130 35 257 0.0 0.0 0.00 0.00 0.00
20201127041629 36 106 0.0 2.0 0.00 0.00 0.00
20201127041134 37 109 1.0 5.0 0.00 0.00 0.00
20201127040627 39 111 3.0 0.0 0.00 0.00 0.00
20201127040129 42 323 0.0 0.0 0.00 0.00 0.00
20201127035626 40 323 0.0 0.0 0.00 0.00 0.00
20201127035125 42 323 0.0 4.0 0.00 0.00 0.00
20201127034623 38 298 3.0 2.0 0.00 0.00 0.00
20201127034124 42 46 0.0 3.0 0.00 0.00 0.00
20201127033621 43 71 1.0 0.0 0.00 0.00 0.00
20201127033120 40 70 0.0 4.0 0.00 0.00 0.00
20201127032623 41 85 3.0 4.0 0.00 0.00 0.00
20201127032118 39 49 0.0 3.0 0.00 0.00 0.00
20201127031617 43 111 2.0 3.0 0.00 0.00 0.00
20201127031116 43 116 2.0 3.0 0.00 0.00 0.00
20201127030618 46 109 2.0 3.0 0.00 0.00 0.00
20201127030114 47 101 3.0 3.0 0.00 0.00 0.00
20201127025615 42 78 2.0 3.0 0.00 0.00 0.00
20201127025112 44 90 3.0 3.0 0.00 0.00 0.00
20201127024612 46 101 1.0 2.0 0.00 0.00 0.00
20201127024110 53 163 1.0 3.0 0.00 0.00 0.00
20201127023609 53 206 2.0 4.0 0.00 0.00 0.00
20201127023108 49 189 2.0 4.0 0.00 0.00 0.00
20201127022607 53 202 1.0 4.0 0.00 0.00 0.00
20201127022108 54 213 4.0 4.0 0.00 0.00 0.00
20201127021605 56 229 2.0 5.0 0.00 0.00 0.00
20201127021105 55 206 2.0 6.0 0.00 0.00 0.00
20201127020605 53 217 3.0 4.0 0.00 0.00 0.00
20201127020111 52 222 3.0 4.0 0.00 0.00 0.00
20201127015601 56 222 2.0 4.0 0.00 0.00 0.00
20201127015101 56 230 1.0 0.0 0.00 0.00 0.00
20201127014059 58 215 1.0 6.0 0.00 0.00 0.00
20201127013558 58 185 3.0 5.0 0.00 0.00 0.00
20201127013057 57 223 3.0 5.0 0.00 0.00 0.00
20201127012555 55 215 1.0 6.0 0.00 0.00 0.00
20201127012054 55 212 2.0 6.0 0.00 0.00 0.00
20201127011554 58 216 1.0 8.0 0.00 0.00 0.00
20201127011052 58 248 4.0 8.0 0.00 0.00 0.00
20201127010551 49 232 5.0 7.0 0.00 0.00 0.00
20201127010056 53 250 4.0 5.0 0.00 0.00 0.00
20201127005551 58 225 5.0 5.0 0.00 0.00 0.00
20201127005049 60 227 4.0 5.0 0.00 0.00 0.00
20201127004548 54 213 1.0 4.0 0.00 0.00 0.00
20201127004050 55 234 4.0 5.0 0.00 0.00 0.00
20201127003546 57 222 3.0 6.0 0.00 0.00 0.00
20201127003045 54 237 5.0 7.0 0.00 0.00 0.00
20201127002544 55 225 6.0 8.0 0.00 0.00 0.00
20201127002047 59 244 4.0 8.0 0.00 0.00 0.00
20201127001547 58 246 4.0 8.0 0.00 0.00 0.00
20201127001042 56 230 7.0 6.0 0.00 0.00 0.00
20201127000545 59 261 4.0 6.0 0.00 0.00 0.00
20201127000040 60 253 5.0 7.0 0.00 0.00 0.00
20201126235539 63 246 6.0 8.0 0.00 0.00 0.00
20201126235037 64 243 6.0 8.0 0.00 0.00 0.00
20201126234536 64 243 2.0 6.0 0.00 0.00 0.00
20201126234036 65 257 4.0 9.0 0.00 0.00 0.00
20201126233534 66 248 4.0 9.0 0.00 0.00 0.00
20201126233033 66 239 6.0 10.0 0.00 0.00 0.00
20201126232532 66 257 7.0 9.0 0.00 0.00 0.00
20201126231536 66 260 3.0 8.0 0.00 0.00 0.00
20201126231029 66 274 5.0 9.0 0.00 0.00 0.00
20201126230530 67 268 8.0 10.0 0.00 0.00 0.00
20201126230028 67 250 5.0 10.0 0.00 0.00 0.00
20201126225526 67 239 4.0 9.0 0.00 0.00 0.00
20201126224524 67 237 4.0 11.0 0.00 0.00 0.00
20201126224025 68 248 4.0 9.0 0.00 0.00 0.00
20201126223522 68 201 6.0 9.0 0.00 0.00 0.00
20201126223037 69 229 5.0 11.0 0.00 0.00 0.00
20201126222520 68 243 8.0 11.0 0.00 0.00 0.00
20201126222025 68 264 6.0 7.0 0.00 0.00 0.00
20201126221521 68 272 2.0 10.0 0.00 0.00 0.00
20201126220516 69 226 7.0 10.0 0.00 0.00 0.00
20201126220018 69 220 3.0 9.0 0.00 0.00 0.00
20201126215514 68 239 2.0 11.0 0.00 0.00 0.00
20201126215019 69 244 5.0 11.0 0.00 0.00 0.00
20201126214519 68 220 3.0 12.0 0.00 0.00 0.00
20201126214017 68 198 6.0 9.0 0.00 0.00 0.00
20201126213516 69 198 7.0 14.0 0.00 0.00 0.00
20201126213014 69 222 3.0 9.0 0.00 0.00 0.00
20201126212536 69 212 7.0 11.0 0.00 0.00 0.00
20201126212021 69 227 9.0 11.0 0.00 0.00 0.00
20201126211518 69 234 5.0 10.0 0.00 0.00 0.00
20201126211024 69 225 4.0 12.0 0.00 0.00 0.00
20201126210510 69 229 4.0 14.0 0.00 0.00 0.00
20201126210021 69 257 8.0 12.0 0.00 0.00 0.00
20201126205511 69 206 7.0 11.0 0.00 0.00 0.00
20201126205009 69 236 8.0 10.0 0.00 0.00 0.00
20201126204508 69 233 4.0 9.0 0.00 0.00 0.00
20201126204001 69 270 6.0 11.0 0.00 0.00 0.00
20201126203513 69 265 6.0 10.0 0.00 0.00 0.00
20201126202959 68 226 4.0 9.0 0.00 0.00 0.00
20201126202459 69 234 4.0 9.0 0.00 0.00 0.00
20201126201956 68 220 5.0 7.0 0.00 0.00 0.00
20201126201457 67 202 3.0 8.0 0.00 0.00 0.00
20201126200953 66 236 4.0 10.0 0.00 0.00 0.00
20201126200452 68 244 8.0 7.0 0.00 0.00 0.00
20201126195952 67 196 6.0 8.0 0.00 0.00 0.00
20201126195452 64 199 4.0 8.0 0.00 0.00 0.00
20201126194949 64 191 3.0 5.0 0.00 0.00 0.00
20201126194449 64 229 1.0 8.0 0.00 0.00 0.00
20201126193947 64 202 3.0 11.0 0.00 0.00 0.00
20201126193448 67 175 5.0 9.0 0.00 0.00 0.00
20201126192946 66 182 5.0 11.0 0.00 0.00 0.00
20201126192447 61 192 7.0 6.0 0.00 0.00 0.00
20201126191945 61 305 0.0 5.0 0.00 0.00 0.00
20201126191445 64 213 4.0 10.0 0.00 0.00 0.00
20201126190942 64 113 0.0 5.0 0.00 0.00 0.00
20201126190443 63 158 4.0 6.0 0.00 0.00 0.00
20201126185940 67 239 4.0 7.0 0.00 0.00 0.00
20201126185439 65 212 5.0 6.0 0.00 0.00 0.00
20201126184939 64 202 2.0 7.0 0.00 0.00 0.00
20201126184438 62 182 5.0 8.0 0.00 0.00 0.00
20201126183937 62 216 8.0 8.0 0.00 0.00 0.00
20201126183438 63 210 5.0 6.0 0.00 0.00 0.00
20201126182933 65 198 5.0 7.0 0.00 0.00 0.00
20201126182434 68 208 4.0 9.0 0.00 0.00 0.00
20201126181932 62 201 5.0 9.0 0.00 0.00 0.00
20201126181434 63 213 8.0 7.0 0.00 0.00 0.00
20201126180929 64 208 3.0 7.0 0.00 0.00 0.00
20201126180431 63 219 3.0 7.0 0.00 0.00 0.00
20201126175928 64 219 5.0 6.0 0.00 0.00 0.00
20201126175428 64 189 4.0 8.0 0.00 0.00 0.00
20201126174926 66 210 6.0 6.0 0.00 0.00 0.00
20201126174425 64 223 4.0 6.0 0.00 0.00 0.00
20201126173924 63 158 4.0 7.0 0.00 0.00 0.00
20201126173428 63 223 5.0 8.0 0.00 0.00 0.00
20201126172922 63 234 5.0 4.0 0.00 0.00 0.00
20201126172421 63 195 3.0 6.0 0.00 0.00 0.00
20201126171920 62 229 5.0 6.0 0.00 0.00 0.00
20201126171421 62 226 1.0 3.0 0.00 0.00 0.00
20201126170923 61 261 1.0 3.0 0.00 0.00 0.00
20201126170418 60 296 0.0 1.0 0.00 0.00 0.00
20201126165917 59 293 0.0 0.0 0.00 0.00 0.00
20201126165415 60 306 0.0 2.0 0.00 0.00 0.00
20201126164916 59 286 0.0 2.0 0.00 0.00 0.00
20201126164414 59 293 0.0 4.0 0.00 0.00 0.00
20201126163913 59 334 2.0 3.0 0.00 0.00 0.00
20201126163412 59 322 0.0 2.0 0.00 0.00 0.00
20201126162910 58 288 0.0 2.0 0.00 0.00 0.00
20201126162411 57 306 2.0 2.0 0.00 0.00 0.00
20201126161908 56 302 0.0 4.0 0.00 0.00 0.00
20201126161407 56 315 3.0 4.0 0.00 0.00 0.00
20201126160907 55 303 3.0 3.0 0.00 0.00 0.00
20201126160407 53 316 2.0 5.0 0.00 0.00 0.00
20201126155904 53 319 4.0 5.0 0.00 0.00 0.00
20201126155429 52 316 4.0 4.0 0.00 0.00 0.00
20201126154911 52 310 3.0 4.0 0.00 0.00 0.00
20201126154401 51 310 1.0 4.0 0.00 0.00 0.00
20201126153900 48 299 1.0 4.0 0.00 0.00 0.00
20201126153402 48 293 2.0 3.0 0.00 0.00 0.00
20201126152905 46 289 3.0 3.0 0.00 0.00 0.00
20201126152358 45 298 2.0 4.0 0.00 0.00 0.00
20201126151901 45 299 3.0 5.0 0.00 0.00 0.00
20201126151356 45 305 2.0 5.0 0.00 0.00 0.00
20201126150903 44 307 4.0 5.0 0.00 0.00 0.00
20201126150354 43 309 4.0 5.0 0.00 0.00 0.00
20201126145857 42 295 4.0 2.0 0.00 0.00 0.00
20201126145352 41 312 1.0 3.0 0.00 0.00 0.00
20201126144851 40 298 3.0 4.0 0.00 0.00 0.00
20201126144350 40 303 3.0 5.0 0.00 0.00 0.00
20201126143849 39 296 4.0 6.0 0.00 0.00 0.00
20201126143349 38 295 6.0 6.0 0.00 0.00 0.00
20201126142847 37 295 4.0 4.0 0.00 0.00 0.00
20201126142345 38 300 4.0 6.0 0.00 0.00 0.00
20201126141844 38 293 5.0 7.0 0.00 0.00 0.00
20201126141344 38 303 6.0 8.0 0.00 0.00 0.00
20201126140845 38 293 7.0 7.0 0.00 0.00 0.00
20201126140343 38 291 7.0 7.0 0.00 0.00 0.00